Content
SEND FEEDBACK

Daily
Averages
Monthly
Summary
United States of America

INARAJAN, GUAM


Home > North America > United States > Guam
Elevation: 280 feet     Latitude: 13 18N     Longitude: 144 44E

WEATHER
 
SELECT A DAY
Number of Records: 342,166;   Date Range: 1/1/95 - 8/12/14
 
SHARE

PRINT THIS DATA

[ ← Previous Day ]
WEATHER ALMANAC - JULY 2, 2013
[ Next Day → ]
[ °C ]   °F
Weather ElementAverageHighLow
Temperature81.4 °F86 °F (12:02 pm)78.1 °F (5:55 am)
Dewpoint77.7 °F79 °F (1:55 pm)75.2 °F (1:56 am)
Humidity88.9 %96 % (2:55 am)79 % (11:01 am)
Barometer29.83 in29.87 in (9:55 am)29.80 in (3:55 pm)
Wind Speed10.3 mph18.4 mph (2:33 pm)
Wind Gust21.9 mph (1:55 pm)
Weather ElementAverage
Visibility10 mi
Wind DirectionENE (62.7 °)

Weather ElementTotal
Precipitation0.01 in
Cooling Degree Days17.1 (Base 65)
Growing Degree Days32.1 (Base 50)
Averaged from 74 records on July 2, 2013
WEATHER CONDITIONS BREAKOUT
WIND DIRECTION BREAKOUT
WEATHER BY HOUR - JULY 2, 2013
[ °C ]   °F
Local TimeTemperatureDewpointHumidityBarometerVisibilityWind DirectionWind SpeedGust SpeedPrecipitationEventsConditions
1:32 AM80.6 °F77.0 °F89 %29.81 in10.0 miENE (70°)8.1 mphMostly Cloudy
1:39 AM78.8 °F77.0 °F94 %29.81 in10.0 miNE (50°)9.2 mphLight Drizzle
1:41 AM78.8 °F77.0 °F94 %29.81 in10.0 miNE (50°)8.1 mphLight Drizzle
1:55 AM78.4 °F76.3 °F93 %29.81 in10.0 miNNE (30°)5.8 mph0.00 inLight Drizzle
1:56 AM78.8 °F75.2 °F89 %29.81 in10.0 miNNE (30°)5.8 mphPartly Cloudy
2:55 AM78.6 °F77.4 °F96 %29.81 in10.0 miENE (60°)4.6 mphPartly Cloudy
3:46 AM78.8 °F77.0 °F94 %29.81 in10.0 miNE (40°)3.5 mphMostly Cloudy
3:55 AM78.6 °F76.6 °F94 %29.81 in10.0 miNE (50°)3.5 mphMostly Cloudy
4:01 AM78.8 °F77.0 °F94 %29.81 in10.0 miENE (60°)4.6 mphMostly Cloudy
4:03 AM78.8 °F77.0 °F94 %29.81 in10.0 miNE (50°)4.6 mphScattered Clouds
4:29 AM78.8 °F77.0 °F94 %29.81 in10.0 miENE (60°)9.2 mphLight Drizzle
4:44 AM78.8 °F77.0 °F94 %29.81 in10.0 miENE (60°)3.5 mphMostly Cloudy
4:55 AM78.6 °F76.3 °F92 %29.81 in10.0 miENE (70°)5.8 mph0.01 inScattered Clouds
5:55 AM78.1 °F75.6 °F92 %29.83 in10.0 miENE (60°)4.6 mphClear
6:24 AM78.8 °F75.2 °F89 %29.83 in10.0 miENE (60°)4.6 mphRainLight Rain
6:35 AM78.8 °F77.0 °F94 %29.84 in10.0 miENE (60°)5.8 mphClear
6:55 AM79.7 °F77.4 °F93 %29.85 in10.0 miENE (70°)3.5 mph0.00 inClear
7:35 AM80.6 °F77.0 °F89 %29.85 in10.0 miENE (60°)4.6 mphRainLight Rain
7:49 AM80.6 °F77.0 °F89 %29.85 in10.0 miNE (50°)8.1 mphClear
7:55 AM81.5 °F77.2 °F87 %29.85 in10.0 miNE (50°)8.1 mph0.00 inClear
8:55 AM83.1 °F78.4 °F86 %29.86 in10.0 miENE (70°)9.2 mphScattered Clouds
9:55 AM83.8 °F77.7 °F82 %29.87 in10.0 miENE (60°)10.4 mphScattered Clouds
10:20 AM84.2 °F78.8 °F84 %29.87 in10.0 miENE (70°)8.1 mphMostly Cloudy
10:55 AM84.4 °F77.5 °F80 %29.87 in10.0 miNE (50°)11.5 mphMostly Cloudy
11:01 AM84.2 °F77.0 °F79 %29.87 in10.0 miENE (60°)10.4 mphScattered Clouds
11:55 AM85.3 °F78.6 °F80 %29.86 in10.0 miENE (70°)9.2 mphScattered Clouds
12:02 PM86.0 °F78.8 °F79 %29.86 in10.0 miNE (50°)12.7 mphMostly Cloudy
12:17 PM86.0 °F78.8 °F79 %29.85 in10.0 miEast (80°)10.4 mph18.4 mphScattered Clouds
12:21 PM86.0 °F78.8 °F79 %29.85 in10.0 miENE (60°)9.2 mphMostly Cloudy
12:55 PM85.5 °F78.8 °F80 %29.84 in10.0 miENE (70°)11.5 mphMostly Cloudy
1:06 PM86.0 °F78.8 °F79 %29.85 in10.0 miENE (60°)12.7 mphMostly Cloudy
1:48 PM86.0 °F78.8 °F79 %29.83 in10.0 miNE (50°)15.0 mphMostly Cloudy
1:52 PM84.2 °F78.8 °F84 %29.83 in10.0 miENE (60°)12.7 mphScattered Clouds
1:55 PM85.1 °F79.0 °F82 %29.83 in10.0 miENE (60°)16.1 mph21.9 mphMostly Cloudy
2:06 PM82.4 °F77.0 °F84 %29.83 in10.0 miENE (60°)17.3 mphScattered Clouds
2:31 PM82.4 °F77.0 °F84 %29.83 in10.0 miENE (60°)17.3 mphMostly Cloudy
2:33 PM84.2 °F77.0 °F79 %29.83 in10.0 miENE (60°)18.4 mphScattered Clouds
2:55 PM84.4 °F77.2 °F79 %29.82 in10.0 miNE (50°)15.0 mphPartly Cloudy
3:55 PM83.8 °F77.9 °F82 %29.80 in10.0 miNNE (30°)15.0 mphScattered Clouds
4:00 PM82.4 °F78.8 °F89 %29.81 in10.0 miNE (40°)13.8 mphMostly Cloudy
4:04 PM82.4 °F78.8 °F89 %29.80 in10.0 miNNE (30°)15.0 mphMostly Cloudy
4:06 PM82.4 °F78.8 °F89 %29.80 in10.0 miNE (40°)13.8 mphMostly Cloudy
4:07 PM82.4 °F78.8 °F89 %29.80 in10.0 miNE (40°)13.8 mphMostly Cloudy
4:12 PM82.4 °F77.0 °F84 %29.80 in10.0 miNE (50°)11.5 mphScattered Clouds
4:55 PM82.2 °F77.7 °F86 %29.80 in10.0 miENE (60°)11.5 mphClear
5:55 PM81.5 °F78.1 °F89 %29.80 in10.0 miENE (70°)11.5 mphPartly Cloudy
6:55 PM80.2 °F78.8 °F95 %29.81 in10.0 miENE (70°)9.2 mphScattered Clouds
7:06 PM80.6 °F78.8 °F94 %29.81 in10.0 miEast (80°)9.2 mphMostly Cloudy
7:07 PM80.6 °F78.8 °F94 %29.81 in10.0 miEast (80°)9.2 mphMostly Cloudy
7:09 PM80.6 °F78.8 °F94 %29.81 in10.0 miEast (80°)9.2 mphMostly Cloudy
7:10 PM80.6 °F78.8 °F94 %29.81 in10.0 miEast (80°)8.1 mphMostly Cloudy
7:12 PM80.6 °F78.8 °F94 %29.82 in10.0 miEast (80°)10.4 mphMostly Cloudy
7:18 PM80.6 °F78.8 °F94 %29.81 in10.0 miEast (90°)9.2 mphMostly Cloudy
7:55 PM80.4 °F78.3 °F93 %29.83 in10.0 miEast (90°)10.4 mphMostly Cloudy
8:26 PM80.6 °F77.0 °F89 %29.84 in10.0 miEast (80°)11.5 mphMostly Cloudy
8:37 PM80.6 °F78.8 °F94 %29.85 in10.0 miEast (80°)10.4 mphScattered Clouds
8:43 PM80.6 °F78.8 °F94 %29.85 in10.0 miENE (70°)10.4 mphMostly Cloudy
8:53 PM80.6 °F78.8 °F94 %29.85 in10.0 miEast (80°)12.7 mphScattered Clouds
8:55 PM80.4 °F78.1 °F93 %29.85 in10.0 miEast (80°)12.7 mphScattered Clouds
9:00 PM80.6 °F78.8 °F94 %29.86 in10.0 miENE (70°)10.4 mphMostly Cloudy
9:02 PM80.6 °F78.8 °F94 %29.86 in10.0 miENE (70°)12.7 mphMostly Cloudy
9:05 PM80.6 °F78.8 °F94 %29.86 in10.0 miENE (70°)12.7 mphScattered Clouds
9:07 PM80.6 °F78.8 °F94 %29.86 in10.0 miENE (70°)13.8 mphMostly Cloudy
9:10 PM80.6 °F78.8 °F94 %29.86 in10.0 miENE (70°)12.7 mphScattered Clouds
9:22 PM80.6 °F77.0 °F89 %29.86 in10.0 miENE (70°)11.5 mphMostly Cloudy
9:26 PM80.6 °F77.0 °F89 %29.86 in10.0 miENE (70°)9.2 mphScattered Clouds
9:42 PM80.6 °F77.0 °F89 %29.86 in10.0 miENE (70°)13.8 mphMostly Cloudy
9:46 PM80.6 °F77.0 °F89 %29.86 in10.0 miENE (70°)12.7 mphScattered Clouds
9:48 PM80.6 °F77.0 °F89 %29.86 in10.0 miENE (70°)15.0 mphMostly Cloudy
9:50 PM80.6 °F77.0 °F89 %29.86 in10.0 miENE (70°)12.7 mphScattered Clouds
9:55 PM80.6 °F77.4 °F90 %29.86 in10.0 miENE (70°)11.5 mphMostly Cloudy
9:59 PM80.6 °F77.0 °F89 %29.86 in10.0 miEast (80°)11.5 mphScattered Clouds
10:55 PM80.6 °F77.0 °F89 %29.86 in10.0 miENE (70°)11.5 mphScattered Clouds
11:55 PM79.7 °F77.0 °F91 %29.86 in10.0 miENE (60°)8.1 mphPartly Cloudy
Hourly data recorded from PGUA, located miles away from Inarajan, Guam







STORIES FROM OUR PARTNERS